EW4258 Weather Reports


Display with metric or nautical units.
time (UTC)temp
F
wind
direction
speed
MPH
gust
MPH
rain 1hr
in
rain 24hr
in
rain mn
in
humidity
%
barometer
mb
20210621195115 74 45 1.0 0.0 0.00 0.00 0.00 62 1012.5
20210621194115 75 315 1.0 2.0 0.00 0.00 0.00 61 1012.2
20210621193115 75 360 2.0 1.0 0.00 0.00 0.00 60 1012.2
20210621192115 76 292 2.0 2.0 0.00 0.00 0.00 59 1012.2
20210621191115 76 315 2.0 3.0 0.00 0.00 0.00 59 1012.2
20210621190116 77 292 2.0 2.0 0.00 0.00 0.00 58 1012.1
20210621185116 77 315 4.0 5.0 0.00 0.00 0.00 58 1012.1
20210621184114 78 360 4.0 7.0 0.00 0.00 0.00 57 1012.4
20210621183114 78 292 2.0 1.0 0.00 0.00 0.00 56 1012.4
20210621182114 79 337 3.0 2.0 0.00 0.00 0.00 55 1012.0
20210621181114 80 315 4.0 7.0 0.00 0.00 0.00 54 1012.0
20210621180114 80 337 4.0 7.0 0.00 0.00 0.00 55 1012.0
20210621175114 80 315 3.0 5.0 0.00 0.00 0.00 54 1012.0
20210621174114 80 360 3.0 4.0 0.00 0.00 0.00 53 1011.9
20210621173114 81 360 4.0 6.0 0.00 0.00 0.00 52 1011.9
20210621172113 83 292 4.0 7.0 0.00 0.00 0.00 50 1011.7
20210621171113 83 315 4.0 8.0 0.00 0.00 0.00 50 1011.7
20210621170113 82 337 5.0 4.0 0.00 0.00 0.00 51 1011.8
20210621165113 82 337 5.0 8.0 0.00 0.00 0.00 51 1011.8
20210621164113 83 315 5.0 5.0 0.00 0.00 0.00 49 1011.7
20210621163113 85 315 5.0 10.0 0.00 0.00 0.00 47 1011.7
20210621162113 86 315 5.0 8.0 0.00 0.00 0.00 46 1011.6
20210621161113 86 225 5.0 7.0 0.00 0.00 0.00 47 1011.6
20210621160113 86 337 5.0 6.0 0.00 0.00 0.00 47 1011.6
20210621155113 85 315 4.0 8.0 0.00 0.00 0.00 49 1011.6
20210621154113 85 270 5.0 5.0 0.00 0.00 0.00 48 1011.6
20210621153113 85 247 5.0 9.0 0.00 0.00 0.00 47 1011.6
20210621152113 86 315 5.0 6.0 0.00 0.00 0.00 47 1011.5
20210621151112 85 315 5.0 6.0 0.00 0.00 0.00 47 1011.5
20210621150113 86 292 6.0 4.0 0.00 0.00 0.00 45 1011.8
20210621145112 86 292 5.0 10.0 0.00 0.00 0.00 46 1011.8
20210621144112 87 337 6.0 10.0 0.00 0.00 0.00 44 1011.6
20210621143112 88 67 6.0 9.0 0.00 0.00 0.00 44 1011.6
20210621142112 88 315 6.0 6.0 0.00 0.00 0.00 44 1011.5
20210621141112 88 337 5.0 10.0 0.00 0.00 0.00 44 1011.5
20210621140112 88 337 5.0 8.0 0.00 0.00 0.00 44 1011.6
20210621135112 88 270 6.0 5.0 0.00 0.00 0.00 44 1011.6
20210621134111 88 360 5.0 9.0 0.00 0.00 0.00 44 1011.8
20210621133112 88 337 5.0 8.0 0.00 0.00 0.00 43 1011.8
20210621132111 88 360 6.0 6.0 0.00 0.00 0.00 44 1011.8
20210621131111 89 337 6.0 8.0 0.00 0.00 0.00 44 1011.8
20210621130111 88 337 4.0 10.0 0.00 0.00 0.00 45 1012.0
20210621125111 88 292 5.0 8.0 0.00 0.00 0.00 44 1012.0
20210621124112 88 337 5.0 7.0 0.00 0.00 0.00 44 1012.0
20210621123111 88 292 5.0 6.0 0.00 0.00 0.00 45 1012.0
20210621122111 88 292 5.0 7.0 0.00 0.00 0.00 44 1012.3
20210621121111 88 315 5.0 9.0 0.00 0.00 0.00 44 1012.3
20210621120110 88 337 6.0 7.0 0.00 0.00 0.00 45 1012.3
20210621115111 88 315 5.0 7.0 0.00 0.00 0.00 45 1012.3
20210621114110 87 360 5.0 11.0 0.00 0.00 0.00 46 1012.3
20210621113110 87 337 4.0 9.0 0.00 0.00 0.00 46 1012.3
20210621112110 86 315 5.0 7.0 0.00 0.00 0.00 46 1012.4
20210621111110 86 337 4.0 9.0 0.00 0.00 0.00 46 1012.4
20210621110115 86 315 3.0 3.0 0.00 0.00 0.00 47 1012.3
20210621105115 86 315 3.0 2.0 0.00 0.00 0.00 46 1012.3
20210621104114 85 67 3.0 6.0 0.00 0.00 0.00 48 1012.2
20210621103115 85 315 3.0 5.0 0.00 0.00 0.00 49 1012.2
20210621102114 84 292 2.0 3.0 0.00 0.00 0.00 49 1012.5
20210621101114 83 315 3.0 3.0 0.00 0.00 0.00 50 1012.5
20210621100114 83 225 2.0 3.0 0.00 0.00 0.00 50 1012.7
20210621095114 82 337 2.0 2.0 0.00 0.00 0.00 51 1012.7
20210621094114 82 292 2.0 6.0 0.00 0.00 0.00 52 1012.9
20210621093114 81 315 2.0 3.0 0.00 0.00 0.00 53 1012.9
20210621092114 81 202 3.0 6.0 0.00 0.00 0.00 55 1013.2
20210621091113 80 270 2.0 2.0 0.00 0.00 0.00 56 1013.2
20210621090113 79 315 3.0 3.0 0.00 0.00 0.00 57 1013.4
20210621085113 79 292 2.0 6.0 0.00 0.00 0.00 58 1013.4
20210621084113 78 315 3.0 2.0 0.00 0.00 0.00 59 1013.8
20210621083113 78 225 2.0 3.0 0.00 0.00 0.00 60 1013.8
20210621082113 78 292 2.0 0.0 0.00 0.00 0.00 61 1013.9
20210621081114 77 292 2.0 2.0 0.00 0.00 0.00 62 1013.9
20210621080113 76 292 2.0 2.0 0.00 0.00 0.00 62 1013.9
20210621075113 76 360 1.0 3.0 0.00 0.00 0.00 64 1013.9
20210621074113 76 67 1.0 2.0 0.00 0.00 0.00 64 1014.2
20210621073113 76 135 2.0 1.0 0.00 0.00 0.00 65 1014.2
20210621072112 75 112 3.0 3.0 0.00 0.00 0.00 67 1014.2
20210621071112 74 67 2.0 4.0 0.00 0.00 0.00 67 1014.2
20210621070113 74 337 2.0 2.0 0.00 0.00 0.00 67 1014.8
20210621065112 73 292 2.0 3.0 0.00 0.00 0.00 68 1014.8
20210621064113 73 202 1.0 0.0 0.00 0.00 0.00 70 1014.7
20210621063112 72 225 2.0 6.0 0.00 0.00 0.00 72 1014.7
20210621062112 71 247 2.0 3.0 0.00 0.00 0.00 73 1014.6
20210621061112 70 360 1.0 2.0 0.00 0.00 0.00 76 1014.6
20210621060112 69 90 2.0 2.0 0.00 0.00 0.00 76 1014.6
20210621055112 69 157 0.0 0.0 0.00 0.00 0.00 77 1014.6
20210621054112 68 135 0.0 0.0 0.00 0.00 0.00 80 1014.8
20210621053113 67 135 0.0 0.0 0.00 0.00 0.00 82 1014.8
20210621052111 66 90 0.0 0.0 0.00 0.00 0.00 84 1014.4
20210621051111 64 45 0.0 0.0 0.00 0.00 0.00 86 1014.4
20210621050111 62 90 0.0 0.0 0.00 0.00 0.00 86 1014.2
20210621045111 61 45 0.0 0.0 0.00 0.00 0.00 87 1014.2
20210621044111 60 247 0.0 0.0 0.00 0.00 0.00 87 1014.0
20210621043113 60 45 0.0 0.0 0.00 0.00 0.00 87 1014.0
20210621042111 60 22 2.0 0.0 0.00 0.00 0.00 87 1013.8
20210621041111 60 67 1.0 2.0 0.00 0.00 0.00 87 1013.8
20210621040111 59 135 0.0 0.0 0.00 0.00 0.00 87 1013.8
20210621035111 59 90 0.0 1.0 0.00 0.00 0.00 87 1013.8
20210621034112 59 45 1.0 0.0 0.00 0.00 0.00 87 1013.6
20210621033111 60 67 0.0 0.0 0.00 0.00 0.00 87 1013.6
20210621032111 60 135 0.0 0.0 0.00 0.00 0.00 87 1013.5
20210621031111 60 360 0.0 0.0 0.00 0.00 0.00 87 1013.5
20210621030111 60 135 0.0 0.0 0.00 0.00 0.00 86 1013.3
20210621025111 60 67 0.0 0.0 0.00 0.00 0.00 86 1013.3
20210621024111 60 67 0.0 1.0 0.00 0.00 0.00 86 1013.2
20210621023111 61 337 0.0 0.0 0.00 0.00 0.00 86 1013.2
20210621022111 61 157 0.0 0.0 0.00 0.00 0.00 86 1013.2
20210621021113 61 202 0.0 0.0 0.00 0.00 0.00 85 1013.2
20210621020112 61 67 0.0 0.0 0.00 0.00 0.00 85 1013.3
20210621015111 61 135 0.0 2.0 0.00 0.00 0.00 85 1013.3
20210621014111 62 90 0.0 0.0 0.00 0.00 0.00 85 1013.8
20210621013111 62 67 1.0 2.0 0.00 0.00 0.00 84 1013.8
20210621012111 62 157 0.0 0.0 0.00 0.00 0.00 84 1013.6
20210621011110 63 292 0.0 0.0 0.00 0.00 0.00 84 1013.6
20210621010110 63 202 0.0 0.0 0.00 0.00 0.00 84 1013.5
20210621005110 63 135 0.0 0.0 0.00 0.00 0.00 84 1013.5
20210621004110 63 67 0.0 0.0 0.00 0.00 0.00 83 1013.3
20210621003110 64 360 0.0 0.0 0.00 0.00 0.00 83 1013.3
20210621002110 64 45 1.0 0.0 0.00 0.00 0.00 83 1013.2
20210621001111 64 157 1.0 1.0 0.00 0.00 0.00 83 1013.2
20210621000110 64 315 0.0 0.0 0.00 0.00 0.00 82 1013.5
20210620235110 65 67 1.0 2.0 0.00 0.00 0.00 82 1013.5
20210620234110 65 135 1.0 0.0 0.00 0.00 0.00 81 1013.4
20210620233110 65 315 0.0 1.0 0.00 0.00 0.00 81 1013.4
20210620232110 65 247 1.0 0.0 0.00 0.00 0.00 81 1013.4
20210620231115 66 360 1.0 2.0 0.00 0.00 0.00 80 1013.4
20210620230115 66 45 0.0 3.0 0.00 0.00 0.00 80 1013.9
20210620225115 66 270 0.0 0.0 0.00 0.00 0.00 79 1013.9
20210620224114 67 45 0.0 0.0 0.00 0.00 0.00 80 1013.7
20210620223114 67 135 0.0 1.0 0.00 0.00 0.00 79 1013.7
20210620222114 67 112 0.0 1.0 0.00 0.00 0.00 78 1013.8
20210620221114 67 67 0.0 1.0 0.00 0.00 0.00 78 1013.8
20210620220114 68 157 1.0 1.0 0.00 0.00 0.00 78 1013.5
20210620215114 68 135 0.0 0.0 0.00 0.00 0.00 78 1013.5
20210620214114 68 90 0.0 1.0 0.00 0.00 0.00 78 1013.5
20210620213114 69 247 0.0 0.0 0.00 0.00 0.00 78 1013.5
20210620212114 69 360 0.0 0.0 0.00 0.00 0.00 78 1013.5
20210620211114 69 202 0.0 0.0 0.00 0.00 0.00 77 1013.5
20210620210114 69 157 1.0 0.0 0.00 0.00 0.00 77 1013.5
20210620205114 70 67 1.0 0.0 0.00 0.00 0.00 77 1013.5
20210620204113 70 135 1.0 1.0 0.00 0.00 0.00 77 1013.5
20210620203113 70 135 1.0 2.0 0.00 0.00 0.00 77 1013.5
20210620202113 71 67 1.0 1.0 0.00 0.00 0.00 76 1013.9
20210620201113 71 225 0.0 0.0 0.00 0.00 0.00 76 1013.9
20210620200113 71 45 0.0 2.0 0.00 0.00 0.00 75 1013.6